Home   Weather   Virudhunagar   Past weeks
Flag for India

Past Weather in Virudhunagar, Tamil Nadu, India — Yesterday and Last 2 Weeks

Now
77 °F

Fog.


Feels Like: 78 °F
Forecast: 90 / 76 °F
Wind: 5 mph from Northeast

Location: Tiruchchirapalli

Current Time: Nov 16, 2019 at 4:48:00 am

Latest Report: Nov 16, 2019 at 4:00 am


Visibility: 2 mi

Pressure: 29.83 "Hg

Humidity: 94%

Dew Point: 75 °F

Location of VirudhunagarLocation

Past Weather in Virudhunagar — Graph

°F

Virudhunagar Temperature Yesterday

Maximum temperature yesterday: 91 °F (at 3:00 pm)
Minimum temperature yesterday: 77 °F (at 4:00 am)
Average temperature yesterday: 83 °F

High & Low Weather Summary for the Past Weeks

 TemperatureHumidityPressure
High95 °F (Nov 10, 3:00 pm)100% (Nov 2, 3:30 am)29.95 "Hg (Nov 2, 3:30 am)
Low73 °F (Nov 1, 5:30 am)47% (Nov 10, 3:00 pm)29.68 "Hg (Nov 6, 3:30 pm)
Average83 °F78%29.83 "Hg
* Reported Nov 1 3:30 am — Nov 16 3:30 am, Virudhunagar. Weather by CustomWeather, © 2019

Note: Actual official high and low records may vary slightly from our data, if they occured in-between our weather recording intervals... More about our weather records

Advertising

Virudhunagar Weather History for the Previous 24 Hours

Scroll right to see more
 ConditionsComfort  
Time TempWeatherWind HumidityBarometerVisibility
3:30 am
Sat, Nov 16
77 °FFog.5 mph94%29.83 "Hg2 mi
3:00 am77 °FFog.5 mph94%29.83 "Hg2 mi
2:30 am77 °FFog.6 mph94%29.83 "Hg3 mi
2:00 am79 °FFog.6 mph89%29.86 "Hg3 mi
1:30 am79 °FFog.7 mph89%29.86 "Hg3 mi
1:00 am79 °FFog.6 mph89%29.89 "Hg3 mi
12:30 am79 °FFog.7 mph89%29.89 "Hg3 mi
12:00 am79 °FFog.7 mph89%29.89 "Hg3 mi
11:30 pm
Fri, Nov 15
79 °FPassing clouds.6 mph89%29.89 "Hg4 mi
11:00 pm81 °FPassing clouds.6 mph84%29.89 "Hg4 mi
10:30 pm81 °FPassing clouds.7 mph84%29.89 "Hg4 mi
10:00 pm81 °FPassing clouds.9 mph84%29.89 "Hg4 mi
9:30 pm81 °FPassing clouds.10 mph84%29.89 "Hg4 mi
9:00 pm82 °FPassing clouds.6 mph79%29.89 "Hg4 mi
8:30 pm82 °FPassing clouds.5 mph79%29.89 "Hg4 mi
8:00 pm82 °FPassing clouds.7 mph79%29.86 "Hg4 mi
7:30 pm84 °FPassing clouds.9 mph74%29.86 "Hg4 mi
7:00 pm84 °FPassing clouds.9 mph74%29.83 "Hg4 mi
6:30 pm84 °FPassing clouds.10 mph74%29.83 "Hg4 mi
6:00 pm86 °FPassing clouds.10 mph70%29.80 "Hg4 mi
5:30 pm86 °FPassing clouds.10 mph70%29.80 "Hg4 mi
5:00 pm88 °FScattered clouds.9 mph62%29.77 "Hg4 mi
4:30 pm88 °FScattered clouds.12 mph62%29.77 "Hg4 mi
4:00 pm90 °FScattered clouds.9 mph59%29.77 "Hg4 mi
3:30 pm90 °FScattered clouds.9 mph59%29.77 "Hg4 mi
3:00 pm91 °FScattered clouds.9 mph56%29.77 "Hg4 mi
2:30 pm90 °FScattered clouds.7 mph59%29.80 "Hg4 mi
2:00 pm88 °FScattered clouds.9 mph66%29.80 "Hg4 mi
1:30 pm88 °FScattered clouds.9 mph66%29.80 "Hg4 mi
1:00 pm88 °FScattered clouds.9 mph62%29.83 "Hg4 mi
12:30 pm88 °FScattered clouds.6 mph62%29.83 "Hg4 mi
12:00 pm86 °FScattered clouds.7 mph66%29.86 "Hg3 mi
11:30 am86 °FScattered clouds.7 mph70%29.89 "Hg3 mi
11:00 am84 °FScattered clouds.7 mph74%29.89 "Hg3 mi
10:30 am84 °FScattered clouds.9 mph70%29.89 "Hg2 mi
10:00 am84 °FScattered clouds.6 mph74%29.89 "Hg2 mi
9:30 am82 °FScattered clouds.6 mph79%29.89 "Hg2 mi
9:00 am82 °FFog.7 mph79%29.89 "Hg2 mi
8:30 am81 °FFog.6 mph84%29.89 "Hg1 mi
8:00 am81 °FFog.6 mph84%29.89 "Hg1 mi
7:30 am79 °FFog.6 mph89%29.89 "Hg1 mi
7:00 am79 °FFog.5 mph89%29.86 "Hg1 mi
6:30 am77 °FFog.5 mph94%29.86 "Hg1 mi
6:00 am77 °FFog.5 mph94%29.86 "Hg2 mi
5:30 am77 °FFog.5 mph94%29.83 "Hg2 mi
5:00 am77 °FFog.5 mph94%29.83 "Hg2 mi
4:30 am77 °FFog.6 mph94%29.83 "Hg2 mi
4:00 am77 °FFog.6 mph94%29.80 "Hg2 mi
Weather by CustomWeather, © 2019

See weather overview